Regional Weather Roundup
Issued by NWS Cleveland, OH

Home | Current Version | Previous Version | Graphics & Text | Print | Product List | Glossary On
Versions: 1 2 3 4 5 6 7 8 9 10 11 12 13 14 15 16 17 18 19 20 21 22 23 24 25 26 27 28 29 30 31 32 33 34 35 36 37 38 39 40 41 42 43 44 45 46 47 48 49 50
000
ASUS41 KCLE 292000
RWRCLE
OHIO REGIONAL WEATHER ROUNDUP
NATIONAL WEATHER SERVICE WILMINGTON, OH
400 PM EDT MON JUN 29 2015

NOTE: "FAIR" INDICATES FEW OR NO CLOUDS BELOW 12,000 FEET WITH NO
SIGNIFICANT WEATHER AND/OR OBSTRUCTIONS TO VISIBILITY.

OHZ001>008-015>018-024>027-034-035-043-044-292100-
   NORTHWEST OHIO

CITY           SKY/WX    TMP DP  RH WIND       PRES   REMARKS
DEFIANCE       CLOUDY    63  59  87 E8        29.86F FOG
FINDLAY        LGT RAIN  63  58  83 SE13G22   29.85F
TOLEDO EXPRESS CLOUDY    66  57  72 SE5       29.86F
TOLEDO EXEC    CLOUDY    68  57  68 SE15      29.87F
LIMA           CLOUDY    61  60  97 SE7       29.84F FOG
$$

OHZ009>014-019>023-028>033-038-089-292100-
   NORTHEAST OHIO

CITY           SKY/WX    TMP DP  RH WIND       PRES   REMARKS
CLE-HOPKINS    LGT RAIN  69  60  73 SE7       29.91F
CLE-LAKEFRONT  CLOUDY    70  59  68 S10       29.88F
CUY CO. ARPT   CLOUDY    72  63  73 S12       29.90F
LORAIN-ELYRIA  CLOUDY    67  59  75 S8        29.89F
ASHTABULA      CLOUDY    72  58  61 S7        29.92F
AKRON-CANTON   CLOUDY    66  59  78 E7        29.91F
WOOSTER        NOT AVBL
MANSFIELD      LGT RAIN  62  58  86 SE12      29.90S FOG
YOUNGSTOWN     LGT RAIN  68  55  63 S3        29.93F
$$

OHZ042-051>053-060>062-070>072-077>081-292100-
  SOUTHWEST OHIO

CITY           SKY/WX    TMP DP  RH WIND       PRES   REMARKS
CINC-COVINGTON MOSUNNY   79  66  64 SW10G18   29.79F
CINC-LUNKEN    PTSUNNY   78  68  71 S6        29.78F
HAMILTON       PTSUNNY   74  68  81 SE3       29.79F
DAYTON         NOT AVBL
WRIGHT-PAT AFB NOT AVBL
DAYTON GENERAL LGT RAIN  66  64  93 E3        29.81S FOG
WILMINGTON     CLOUDY    71  64  78 S6        29.81F
$$

OHZ036-037-039>041-045>050-054>059-063>069-073>076-082>088-292100-
  CENTRAL AND SOUTHEAST OHIO

CITY           SKY/WX    TMP DP  RH WIND       PRES   REMARKS
COLUMBUS       CLOUDY    63  61  93 SE12      29.85F
OSU AIRPORT    CLOUDY    63  61  93 SE14G20   29.84F FOG
BOLTON FIELD   DRIZZLE   63  63 100 SE12      29.85F FOG
RICKENBACK AFB NOT AVBL
NEWARK         HVY RAIN  65  60  84 SE7       29.86F
MARION         LGT RAIN  62  59  90 SE12      29.87F FOG
LANCASTER      LGT RAIN  65  62  90 SE7       29.86F FOG
ZANESVILLE     CLOUDY    66  58  75 SE8       29.88F
NEW PHILLY     LGT RAIN  67  60  78 S5        29.91F
$$


USA.gov is the U.S. government's official web portal to all federal, state and local government web resources and services.